CES371 WIII-WADD

Flight info

Callsign CES371
Flight time 1h 28m
Altitude 35000
Route CA T3 MOVMO
Aircraft B738/M-SDE2E3FGHIRWXY/LB1

Departure

Time 2026-05-04 06:00
Airport Soekarno-Hatta International Airport (WIII)

Arrival

Time 2026-05-04 07:28
Airport Denpasar I Gusti Ngurah Rai International Airport (WADD)
Time Latitude Longitude Altitude Speed Heading
2026-05-04 05:41 -6.12046 106.65083 35 ft 0 kts 140°
2026-05-04 05:48 -6.12045 106.65082 35 ft 2 kts 140°
2026-05-04 05:48 -6.12025 106.65066 32 ft 4 kts 131°
2026-05-04 05:48 -6.12013 106.65050 35 ft 4 kts 103°
2026-05-04 05:49 -6.12009 106.65030 34 ft 4 kts 90°
2026-05-04 05:49 -6.12015 106.65012 35 ft 4 kts 15°
2026-05-04 05:49 -6.12041 106.65010 35 ft 4 kts
2026-05-04 05:49 -6.12050 106.65010 35 ft 1 kts
2026-05-04 05:52 -6.12040 106.65012 35 ft 3 kts
2026-05-04 05:52 -6.12018 106.65015 34 ft 4 kts
2026-05-04 05:53 -6.11988 106.65021 35 ft 5 kts
2026-05-04 05:54 -6.12015 106.64589 36 ft 14 kts 248°
2026-05-04 05:55 -6.12050 106.64500 36 ft 13 kts 249°
2026-05-04 05:55 -6.12082 106.64414 36 ft 13 kts 249°
2026-05-04 05:55 -6.12117 106.64332 34 ft 13 kts 246°
2026-05-04 05:55 -6.12149 106.64251 36 ft 12 kts 249°
2026-05-04 05:56 -6.12179 106.64172 35 ft 12 kts 248°
2026-05-04 05:56 -6.12211 106.64094 37 ft 13 kts 248°
2026-05-04 05:56 -6.12245 106.64008 37 ft 11 kts 248°
2026-05-04 05:56 -6.12264 106.63936 38 ft 11 kts 276°
2026-05-04 05:57 -6.12234 106.63900 38 ft 0 kts 331°
2026-05-04 05:57 -6.12233 106.63900 38 ft 0 kts 331°
2026-05-04 05:57 -6.12228 106.63897 38 ft 2 kts 331°
2026-05-04 05:58 -6.12209 106.63889 38 ft 4 kts 343°
2026-05-04 05:58 -6.12178 106.63885 38 ft 5 kts
2026-05-04 05:58 -6.12138 106.63903 38 ft 8 kts 32°
2026-05-04 05:58 -6.12089 106.63941 37 ft 10 kts 46°
2026-05-04 05:59 -6.12066 106.63981 36 ft 1 kts 68°
2026-05-04 05:59 -6.12065 106.63985 37 ft 1 kts 69°
2026-05-04 05:59 -6.12055 106.64011 34 ft 21 kts 69°
2026-05-04 05:59 -6.11902 106.64393 35 ft 95 kts 68°
2026-05-04 06:00 -6.11574 106.65209 36 ft 155 kts 68°
2026-05-04 06:00 -6.11123 106.66324 421 ft 177 kts 65°
2026-05-04 06:00 -6.10656 106.67495 1186 ft 179 kts 68°
2026-05-04 06:00 -6.10047 106.68473 2279 ft 165 kts 47°
2026-05-04 06:01 -6.09174 106.69363 2599 ft 195 kts 46°
2026-05-04 06:01 -6.08157 106.70372 2938 ft 216 kts 45°
2026-05-04 06:03 -5.99356 106.79544 4996 ft 274 kts 48°
2026-05-04 06:03 -5.98269 106.81079 4982 ft 269 kts 70°
2026-05-04 06:05 -6.01562 106.93860 9527 ft 282 kts 108°
2026-05-04 06:05 -6.02885 106.97707 10422 ft 309 kts 108°
2026-05-04 06:05 -6.03610 106.99820 10589 ft 330 kts 108°
2026-05-04 06:06 -6.04381 107.02070 10740 ft 350 kts 108°
2026-05-04 06:06 -6.05186 107.04419 11105 ft 360 kts 108°
2026-05-04 06:06 -6.05996 107.06784 11625 ft 365 kts 108°
2026-05-04 06:06 -6.06833 107.09227 12285 ft 366 kts 108°
2026-05-04 06:07 -6.07654 107.11625 12801 ft 370 kts 108°
2026-05-04 06:07 -6.08504 107.14109 12976 ft 372 kts 108°
2026-05-04 06:07 -6.09334 107.16536 12980 ft 372 kts 108°
2026-05-04 06:07 -6.10221 107.19022 13002 ft 375 kts 111°
2026-05-04 06:08 -6.11221 107.21417 13504 ft 378 kts 113°
2026-05-04 06:08 -6.12288 107.23825 14130 ft 377 kts 113°
2026-05-04 06:08 -6.13369 107.26232 14634 ft 379 kts 114°
2026-05-04 06:08 -6.14452 107.28654 15151 ft 382 kts 113°
2026-05-04 06:09 -6.15539 107.31101 15610 ft 385 kts 113°
2026-05-04 06:09 -6.16629 107.33573 16067 ft 388 kts 113°
2026-05-04 06:11 -6.23188 107.48595 18612 ft 405 kts 113°
2026-05-04 06:11 -6.24322 107.51197 18987 ft 407 kts 113°
2026-05-04 06:13 -6.32396 107.69745 21422 ft 423 kts 113°
2026-05-04 06:14 -6.39159 107.85295 23209 ft 434 kts 113°
2026-05-04 06:14 -6.40371 107.88083 23487 ft 437 kts 113°
2026-05-04 06:15 -6.41590 107.90889 23736 ft 438 kts 113°
2026-05-04 06:15 -6.42813 107.93704 23980 ft 440 kts 113°
2026-05-04 06:15 -6.44038 107.96523 24221 ft 441 kts 113°
2026-05-04 06:15 -6.45269 107.99357 24465 ft 443 kts 113°
2026-05-04 06:16 -6.46503 108.02197 24698 ft 444 kts 113°
2026-05-04 06:16 -6.47740 108.05048 24941 ft 446 kts 113°
2026-05-04 06:16 -6.48982 108.07912 25142 ft 448 kts 113°
2026-05-04 06:16 -6.50230 108.10789 25326 ft 450 kts 113°
2026-05-04 06:17 -6.51483 108.13679 25542 ft 452 kts 113°
2026-05-04 06:17 -6.52740 108.16581 25755 ft 453 kts 113°
2026-05-04 06:17 -6.53999 108.19486 25975 ft 454 kts 113°
2026-05-04 06:17 -6.55263 108.22404 26180 ft 456 kts 113°
2026-05-04 06:18 -6.56532 108.25333 26375 ft 458 kts 113°
2026-05-04 06:18 -6.57804 108.28271 26579 ft 459 kts 113°
2026-05-04 06:18 -6.59081 108.31219 26776 ft 460 kts 113°
2026-05-04 06:20 -6.68120 108.52111 28020 ft 471 kts 113°
2026-05-04 06:20 -6.69422 108.55137 28191 ft 472 kts 111°
2026-05-04 06:21 -6.71723 108.68097 29022 ft 472 kts 98°
2026-05-04 06:21 -6.72192 108.71358 29274 ft 471 kts 98°
2026-05-04 06:22 -6.72673 108.74614 29566 ft 470 kts 98°
2026-05-04 06:22 -6.73163 108.77858 29824 ft 469 kts 98°
2026-05-04 06:25 -6.79596 109.19825 32687 ft 465 kts 98°
2026-05-04 06:25 -6.80087 109.23037 32893 ft 464 kts 98°
2026-05-04 06:26 -6.80577 109.26243 32970 ft 464 kts 98°
2026-05-04 06:26 -6.81559 109.32683 32982 ft 466 kts 98°
2026-05-04 06:27 -6.84012 109.48786 32978 ft 466 kts 98°
2026-05-04 06:28 -6.84992 109.55227 32972 ft 466 kts 98°
2026-05-04 06:28 -6.85971 109.61668 32972 ft 465 kts 98°
2026-05-04 06:29 -6.86947 109.68102 32977 ft 465 kts 98°
2026-05-04 06:29 -6.87924 109.74542 32974 ft 465 kts 98°
2026-05-04 06:30 -6.88900 109.80979 32972 ft 465 kts 98°
2026-05-04 06:30 -6.89874 109.87416 32972 ft 465 kts 98°
2026-05-04 06:31 -6.90847 109.93850 32972 ft 466 kts 97°
2026-05-04 06:31 -6.91821 110.00295 32973 ft 466 kts 97°
2026-05-04 06:33 -6.95718 110.26144 32946 ft 468 kts 97°
2026-05-04 06:34 -6.96685 110.32574 32948 ft 468 kts 97°
2026-05-04 06:34 -6.97583 110.39055 32940 ft 467 kts 92°
2026-05-04 06:36 -6.97987 110.65193 32946 ft 467 kts 90°
2026-05-04 06:37 -6.98106 110.71730 32941 ft 467 kts 90°
2026-05-04 06:37 -6.98224 110.78266 32941 ft 467 kts 90°
2026-05-04 06:38 -6.98339 110.84797 32942 ft 467 kts 90°
2026-05-04 06:40 -6.98722 111.07098 32958 ft 466 kts 90°
2026-05-04 06:40 -6.98832 111.13621 32964 ft 466 kts 90°
2026-05-04 06:41 -6.98941 111.20096 32958 ft 466 kts 90°
2026-05-04 06:41 -6.99050 111.26649 32963 ft 465 kts 90°
2026-05-04 06:42 -6.99157 111.33157 32961 ft 465 kts 90°
2026-05-04 06:44 -7.05948 111.57867 32969 ft 465 kts 112°
2026-05-04 06:44 -7.08487 111.63852 32971 ft 465 kts 112°
2026-05-04 06:45 -7.11000 111.69849 32969 ft 465 kts 112°
2026-05-04 06:45 -7.13507 111.75854 32966 ft 465 kts 112°
2026-05-04 06:46 -7.16012 111.81859 32977 ft 466 kts 112°
2026-05-04 06:46 -7.18522 111.87871 32973 ft 466 kts 112°
2026-05-04 06:48 -7.28576 112.11979 32975 ft 468 kts 112°
2026-05-04 06:50 -7.38652 112.36181 32985 ft 469 kts 112°
2026-05-04 06:51 -7.41158 112.42209 32987 ft 470 kts 112°
2026-05-04 06:51 -7.43681 112.48279 32989 ft 470 kts 112°
2026-05-04 06:52 -7.46206 112.54356 32987 ft 470 kts 112°
2026-05-04 06:52 -7.48729 112.60430 32989 ft 470 kts 112°
2026-05-04 06:53 -7.51252 112.66508 32989 ft 470 kts 112°
2026-05-04 06:53 -7.53777 112.72592 32988 ft 470 kts 112°
2026-05-04 06:54 -7.56300 112.78676 32988 ft 471 kts 112°
2026-05-04 06:54 -7.57564 112.81725 32874 ft 473 kts 112°
2026-05-04 06:54 -7.58833 112.84787 32443 ft 470 kts 112°
2026-05-04 06:55 -7.60083 112.87801 32064 ft 464 kts 112°
2026-05-04 06:55 -7.61326 112.90802 31693 ft 464 kts 112°
2026-05-04 06:55 -7.62571 112.93808 31321 ft 465 kts 112°
2026-05-04 06:55 -7.63816 112.96814 30958 ft 465 kts 112°
2026-05-04 06:56 -7.65060 112.99820 30594 ft 465 kts 112°
2026-05-04 06:57 -7.73761 113.20852 27826 ft 465 kts 112°
2026-05-04 06:58 -7.75007 113.23867 27439 ft 467 kts 112°
2026-05-04 06:58 -7.76258 113.26895 27054 ft 468 kts 112°
2026-05-04 06:58 -7.77510 113.29926 26674 ft 470 kts 112°
2026-05-04 06:58 -7.78767 113.32969 26312 ft 471 kts 112°
2026-05-04 06:59 -7.80030 113.36028 25934 ft 472 kts 112°
2026-05-04 06:59 -7.81294 113.39089 25578 ft 474 kts 112°
2026-05-04 06:59 -7.82562 113.42160 25211 ft 474 kts 112°
2026-05-04 06:59 -7.83828 113.45230 24853 ft 474 kts 112°
2026-05-04 07:01 -7.91883 113.64767 22367 ft 433 kts 112°
2026-05-04 07:01 -7.93034 113.67562 21961 ft 430 kts 112°
2026-05-04 07:02 -7.94176 113.70337 21559 ft 427 kts 112°
2026-05-04 07:02 -7.95312 113.73096 21177 ft 424 kts 112°
2026-05-04 07:02 -7.96442 113.75841 20747 ft 424 kts 112°
2026-05-04 07:02 -7.97569 113.78582 20382 ft 422 kts 112°
2026-05-04 07:03 -7.98692 113.81311 20013 ft 420 kts 112°
2026-05-04 07:03 -7.99810 113.84029 19647 ft 419 kts 112°
2026-05-04 07:03 -8.01163 113.86607 19256 ft 417 kts 128°
2026-05-04 07:03 -8.03250 113.88611 18921 ft 415 kts 145°
2026-05-04 07:04 -8.05802 113.89947 18562 ft 413 kts 161°
2026-05-04 07:04 -8.08606 113.90539 18247 ft 411 kts 172°
2026-05-04 07:04 -8.11433 113.90882 17929 ft 408 kts 173°
2026-05-04 07:04 -8.14246 113.91191 17597 ft 405 kts 173°
2026-05-04 07:05 -8.17034 113.91495 17262 ft 402 kts 173°
2026-05-04 07:05 -8.17974 113.91601 17153 ft 401 kts 173°
2026-05-04 07:05 -8.19281 113.91749 17005 ft 400 kts 173°
2026-05-04 07:05 -8.22036 113.92071 16675 ft 397 kts 172°
2026-05-04 07:06 -8.27498 113.92732 16047 ft 393 kts 172°
2026-05-04 07:06 -8.30207 113.93066 15732 ft 389 kts 172°
2026-05-04 07:06 -8.32873 113.93395 15445 ft 381 kts 172°
2026-05-04 07:07 -8.35448 113.93713 15414 ft 365 kts 172°
2026-05-04 07:08 -8.52684 113.95845 15406 ft 355 kts 172°
2026-05-04 07:09 -8.55127 113.96147 15413 ft 352 kts 172°
2026-05-04 07:09 -8.57555 113.96543 15400 ft 355 kts 161°
2026-05-04 07:09 -8.59739 113.97688 15422 ft 357 kts 141°
2026-05-04 07:09 -8.61407 113.99513 15416 ft 361 kts 123°
2026-05-04 07:10 -8.62454 114.01845 15429 ft 360 kts 110°
2026-05-04 07:10 -8.63226 114.04209 15415 ft 359 kts 108°
2026-05-04 07:12 -8.68728 114.20895 14152 ft 350 kts 109°
2026-05-04 07:12 -8.69501 114.23203 13617 ft 343 kts 109°
2026-05-04 07:12 -8.70257 114.25460 13040 ft 336 kts 109°
2026-05-04 07:12 -8.71000 114.27678 12539 ft 329 kts 109°
2026-05-04 07:13 -8.71721 114.29834 12124 ft 319 kts 109°
2026-05-04 07:13 -8.72423 114.31932 11710 ft 311 kts 109°
2026-05-04 07:13 -8.73107 114.33978 11296 ft 304 kts 109°
2026-05-04 07:14 -8.75714 114.41771 9718 ft 283 kts 108°
2026-05-04 07:14 -8.76340 114.43645 9289 ft 282 kts 108°
2026-05-04 07:15 -8.76967 114.45525 8871 ft 281 kts 108°
2026-05-04 07:15 -8.77585 114.47377 8449 ft 276 kts 108°
2026-05-04 07:15 -8.78195 114.49205 8038 ft 272 kts 108°
2026-05-04 07:15 -8.78799 114.51012 7633 ft 270 kts 108°
2026-05-04 07:16 -8.79394 114.52796 7216 ft 267 kts 108°
2026-05-04 07:16 -8.79984 114.54564 6829 ft 264 kts 108°
2026-05-04 07:16 -8.80566 114.56308 6436 ft 261 kts 108°
2026-05-04 07:16 -8.81143 114.58039 6051 ft 257 kts 107°
2026-05-04 07:17 -8.81706 114.59726 5764 ft 251 kts 108°
2026-05-04 07:17 -8.82264 114.61398 5475 ft 250 kts 107°
2026-05-04 07:17 -8.82819 114.63062 5193 ft 249 kts 107°
2026-05-04 07:17 -8.83367 114.64706 4906 ft 243 kts 108°
2026-05-04 07:18 -8.83889 114.66270 4879 ft 228 kts 108°
2026-05-04 07:18 -8.84379 114.67786 4881 ft 225 kts 102°
2026-05-04 07:18 -8.84347 114.69339 4891 ft 222 kts 77°
2026-05-04 07:18 -8.83845 114.70838 4722 ft 230 kts 69°
2026-05-04 07:19 -8.83225 114.72331 4483 ft 229 kts 68°
2026-05-04 07:19 -8.82603 114.73792 4229 ft 223 kts 68°
2026-05-04 07:19 -8.82002 114.75214 3973 ft 217 kts 68°
2026-05-04 07:19 -8.81424 114.76593 3737 ft 209 kts 69°
2026-05-04 07:20 -8.80870 114.77925 3430 ft 202 kts 68°
2026-05-04 07:20 -8.80335 114.79216 3134 ft 196 kts 69°
2026-05-04 07:20 -8.79818 114.80470 2842 ft 191 kts 70°
2026-05-04 07:20 -8.79313 114.81697 2570 ft 187 kts 70°
2026-05-04 07:22 -8.76060 114.89633 2485 ft 171 kts 69°
2026-05-04 07:22 -8.75603 114.90753 2486 ft 174 kts 71°
2026-05-04 07:23 -8.75450 114.91957 2505 ft 174 kts 94°
2026-05-04 07:23 -8.75484 114.93195 2488 ft 178 kts 91°
2026-05-04 07:23 -8.75491 114.94427 2480 ft 174 kts 91°
2026-05-04 07:23 -8.75497 114.95633 2491 ft 171 kts 92°
2026-05-04 07:24 -8.75503 114.96840 2498 ft 171 kts 92°
2026-05-04 07:24 -8.75510 114.98045 2492 ft 171 kts 92°
2026-05-04 07:24 -8.75517 114.99245 2496 ft 172 kts 91°
2026-05-04 07:24 -8.75483 115.00478 2379 ft 178 kts 89°
2026-05-04 07:25 -8.75433 115.01703 2221 ft 174 kts 89°
2026-05-04 07:26 -8.75120 115.09567 1149 ft 151 kts 91°
2026-05-04 07:27 -8.75079 115.10637 952 ft 153 kts 90°
2026-05-04 07:27 -8.75036 115.11706 774 ft 151 kts 90°
2026-05-04 07:27 -8.74991 115.12763 521 ft 150 kts 90°
2026-05-04 07:27 -8.74961 115.13790 327 ft 140 kts 90°
2026-05-04 07:28 -8.74918 115.14749 148 ft 132 kts 91°
2026-05-04 07:28 -8.74887 115.15644 29 ft 122 kts 90°
2026-05-04 07:28 -8.74861 115.16313 27 ft 64 kts 87°
2026-05-04 07:28 -8.74850 115.16582 28 ft 27 kts 88°
2026-05-04 07:29 -8.74808 115.16761 29 ft 26 kts 62°
2026-05-04 07:29 -8.74753 115.16851 29 ft 12 kts 36°
2026-05-04 07:29 -8.74687 115.16869 31 ft 7 kts 37°
2026-05-04 07:29 -8.74672 115.16906 31 ft 2 kts 85°
2026-05-04 07:30 -8.74671 115.16922 31 ft 2 kts 87°
2026-05-04 07:30 -8.74671 115.16937 31 ft 2 kts 87°
2026-05-04 07:30 -8.74670 115.16955 31 ft 4 kts 87°
2026-05-04 07:30 -8.74668 115.16994 31 ft 6 kts 87°
2026-05-04 07:31 -8.74666 115.17036 31 ft 6 kts 88°
2026-05-04 07:31 -8.74664 115.17077 31 ft 6 kts 88°
2026-05-04 07:33 -8.74536 115.17132 32 ft 0 kts 357°